Location: ??
(34.9170°N, 135.5016°E)
Time: 10:16:11
(UTC+00:00)

X-37B - Pass Details

Date: 23 January 2021
Orbit: 383 x 391 km, 45.0° (Epoch: 10 February)

Event Time Altitude Azimuth Distance (km) Brightness Sun altitude
Rises 10:08:04 0° 297° (WNW) 2,274 5.3 -22.6°
Reaches altitude 10° 10:10:58 10° 326° (NW) 1,421 3.7 -23.2°
Enters shadow 10:11:26 12° 334° (NNW) 1,333 3.5 -23.3°
